• In Uzbekistan
  • List of Countries
  • For 7 days
  • Water Temperature
  • Satellite Maps
  • Weather Map
  • Weather Widgets
  • user-avatar
    Login

    Hourly Weather Darwin

    Today, 11 December, Monday

    Time Temperature Precipitation Wind Pressure Humidity
    00:00 +31°C° 0 mm 3 mps 757 mmHg 66%
    01:00 +31°C° 0 mm 3 mps 757 mmHg 67%
    02:00 +31°C° 0 mm 2 mps 757 mmHg 68%
    03:00 +30°C° 0 mm 3 mps 757 mmHg 69%
    04:00 +30°C° 0 mm 2 mps 757 mmHg 69%
    05:00 +30°C° 0 mm 2 mps 757 mmHg 70%
    06:00 +30°C° 0 mm 1 mps 757 mmHg 71%
    07:00 +32°C° 0 mm 1 mps 758 mmHg 63%
    08:00 +34°C° 0 mm 1 mps 758 mmHg 55%
    09:00 +36°C° 0 mm 1 mps 758 mmHg 47%
    10:00 +39°C° 0 mm 1 mps 758 mmHg 44%
    11:00 +40°C° 0 mm 2 mps 757 mmHg 40%
    12:00 +41°C° 0 mm 2 mps 757 mmHg 36%
    13:00 +42°C° 0 mm 3 mps 756 mmHg 38%
    14:00 +40°C° 0 mm 3 mps 756 mmHg 40%
    15:00 +38°C° 0 mm 3 mps 755 mmHg 46%
    16:00 +38°C° 0 mm 3 mps 755 mmHg 48%
    17:00 +37°C° 0 mm 3 mps 755 mmHg 50%
    18:00 +36°C° 0 mm 3 mps 755 mmHg 53%
    19:00 +35°C° 0.1 mm 3 mps 756 mmHg 57%
    20:00 +34°C° 0.1 mm 3 mps 756 mmHg 60%
    21:00 +33°C° 0.1 mm 3 mps 756 mmHg 64%
    22:00 +33°C° 0.2 mm 3 mps 756 mmHg 66%
    23:00 +31°C° 0.2 mm 3 mps 756 mmHg 68%

    Tomorrow, 12 December, Tuesday

    Time Temperature Precipitation Wind Pressure Humidity
    00:00 +31°C° 0.2 mm 2 mps 757 mmHg 70%
    01:00 +31°C° 0 mm 3 mps 756 mmHg 72%
    02:00 +31°C° 0 mm 3 mps 756 mmHg 74%
    03:00 +31°C° 0 mm 3 mps 756 mmHg 75%
    04:00 +30°C° 0.1 mm 3 mps 756 mmHg 77%
    05:00 +30°C° 0.1 mm 2 mps 756 mmHg 78%
    06:00 +30°C° 0.1 mm 2 mps 757 mmHg 79%
    07:00 +32°C° 0 mm 2 mps 757 mmHg 72%
    08:00 +35°C° 0 mm 3 mps 757 mmHg 64%
    09:00 +36°C° 0 mm 3 mps 757 mmHg 57%
    10:00 +38°C° 0.1 mm 3 mps 757 mmHg 51%
    11:00 +40°C° 0.1 mm 4 mps 757 mmHg 46%
    12:00 +42°C° 0.1 mm 4 mps 756 mmHg 41%
    13:00 +41°C° 0 mm 4 mps 755 mmHg 45%
    14:00 +39°C° 0 mm 5 mps 755 mmHg 48%
    15:00 +37°C° 0 mm 5 mps 754 mmHg 52%
    16:00 +37°C° 0.3 mm 5 mps 754 mmHg 55%
    17:00 +36°C° 0.3 mm 5 mps 754 mmHg 58%
    18:00 +35°C° 0.3 mm 5 mps 754 mmHg 61%
    19:00 +34°C° 0.6 mm 5 mps 755 mmHg 65%
    20:00 +33°C° 0.6 mm 4 mps 755 mmHg 69%
    21:00 +32°C° 0.6 mm 4 mps 756 mmHg 72%
    22:00 +32°C° 0.7 mm 4 mps 756 mmHg 74%
    23:00 +30°C° 0.7 mm 3 mps 756 mmHg 76%

    Day after tomorrow, 13 December, Wednesday

    Time Temperature Precipitation Wind Pressure Humidity
    00:00 +30°C° 0.7 mm 3 mps 756 mmHg 78%
    01:00 +30°C° 0.1 mm 3 mps 756 mmHg 78%
    02:00 +30°C° 0.1 mm 3 mps 755 mmHg 78%
    03:00 +30°C° 0.1 mm 3 mps 755 mmHg 78%
    04:00 +30°C° 0 mm 3 mps 755 mmHg 78%
    05:00 +30°C° 0 mm 2 mps 756 mmHg 78%
    06:00 +30°C° 0 mm 2 mps 756 mmHg 78%
    07:00 +31°C° 0 mm 2 mps 756 mmHg 70%
    08:00 +34°C° 0 mm 3 mps 757 mmHg 62%
    09:00 +36°C° 0 mm 3 mps 757 mmHg 54%
    10:00 +38°C° 0 mm 3 mps 757 mmHg 49%
    11:00 +40°C° 0 mm 4 mps 756 mmHg 45%
    12:00 +41°C° 0 mm 4 mps 756 mmHg 40%
    13:00 +40°C° 0.1 mm 4 mps 755 mmHg 45%
    14:00 +37°C° 0.1 mm 5 mps 755 mmHg 49%
    15:00 +36°C° 0.1 mm 5 mps 754 mmHg 54%
    16:00 +35°C° 0.5 mm 5 mps 754 mmHg 58%
    17:00 +34°C° 0.5 mm 5 mps 754 mmHg 63%
    18:00 +33°C° 0.5 mm 4 mps 754 mmHg 67%
    19:00 +32°C° 1 mm 4 mps 755 mmHg 70%
    20:00 +31°C° 1 mm 3 mps 755 mmHg 74%
    21:00 +30°C° 1 mm 3 mps 756 mmHg 78%
    22:00 +30°C° 1 mm 3 mps 756 mmHg 78%
    23:00 +30°C° 1 mm 2 mps 756 mmHg 78%

    14 December, Thursday

    Time Temperature Precipitation Wind Pressure Humidity
    00:00 +29°C° 1 mm 2 mps 756 mmHg 78%
    01:00 +29°C° 0 mm 2 mps 756 mmHg 78%
    02:00 +29°C° 0 mm 2 mps 755 mmHg 78%
    03:00 +29°C° 0 mm 1 mps 755 mmHg 78%
    04:00 +29°C° 0 mm 1 mps 755 mmHg 78%
    05:00 +29°C° 0 mm 1 mps 755 mmHg 79%
    06:00 +29°C° 0 mm 1 mps 756 mmHg 79%
    07:00 +30°C° 0.1 mm 2 mps 756 mmHg 75%
    08:00 +31°C° 0.1 mm 2 mps 756 mmHg 72%
    09:00 +32°C° 0.1 mm 2 mps 757 mmHg 68%
    10:00 +35°C° 0 mm 2 mps 756 mmHg 60%
    11:00 +37°C° 0 mm 2 mps 756 mmHg 52%
    12:00 +39°C° 0 mm 3 mps 755 mmHg 44%
    13:00 +38°C° 0.1 mm 3 mps 755 mmHg 45%
    14:00 +38°C° 0.1 mm 4 mps 754 mmHg 46%
    15:00 +39°C° 0.1 mm 5 mps 753 mmHg 47%
    16:00 +37°C° 0.6 mm 5 mps 754 mmHg 52%
    17:00 +36°C° 0.6 mm 5 mps 754 mmHg 56%
    18:00 +35°C° 0.6 mm 5 mps 754 mmHg 61%
    19:00 +34°C° 0.1 mm 5 mps 754 mmHg 65%
    20:00 +33°C° 0.1 mm 5 mps 755 mmHg 69%
    21:00 +32°C° 0.1 mm 5 mps 755 mmHg 73%
    22:00 +30°C° 0.2 mm 4 mps 755 mmHg 74%
    23:00 +30°C° 0.2 mm 3 mps 755 mmHg 75%

    15 December, Friday

    Time Temperature Precipitation Wind Pressure Humidity
    00:00 +30°C° 0.2 mm 2 mps 755 mmHg 77%
    01:00 +30°C° 0.4 mm 2 mps 755 mmHg 77%
    02:00 +29°C° 0.4 mm 2 mps 755 mmHg 78%
    03:00 +29°C° 0.4 mm 2 mps 754 mmHg 79%
    04:00 +29°C° 0 mm 2 mps 755 mmHg 79%
    05:00 +29°C° 0 mm 2 mps 755 mmHg 78%
    06:00 +29°C° 0 mm 2 mps 756 mmHg 78%
    07:00 +31°C° 0 mm 2 mps 756 mmHg 69%
    08:00 +34°C° 0 mm 2 mps 756 mmHg 61%
    09:00 +36°C° 0 mm 2 mps 756 mmHg 52%
    10:00 +37°C° 0 mm 2 mps 756 mmHg 48%
    11:00 +39°C° 0 mm 2 mps 756 mmHg 43%
    12:00 +40°C° 0 mm 3 mps 755 mmHg 39%
    13:00 +39°C° 0 mm 3 mps 754 mmHg 41%
    14:00 +40°C° 0 mm 4 mps 754 mmHg 43%
    15:00 +39°C° 0 mm 5 mps 753 mmHg 45%
    16:00 +37°C° 0.1 mm 4 mps 753 mmHg 49%
    17:00 +36°C° 0.1 mm 4 mps 753 mmHg 53%
    18:00 +35°C° 0.1 mm 4 mps 754 mmHg 57%
    19:00 +34°C° 0.9 mm 3 mps 754 mmHg 62%
    20:00 +32°C° 0.9 mm 2 mps 755 mmHg 68%
    21:00 +31°C° 0.9 mm 2 mps 755 mmHg 73%
    22:00 +30°C° 0 mm 2 mps 755 mmHg 74%
    23:00 +30°C° 0 mm 1 mps 755 mmHg 74%

    16 December, Saturday

    Time Temperature Precipitation Wind Pressure Humidity
    00:00 +30°C° 0 mm 1 mps 755 mmHg 75%
    01:00 +30°C° 0 mm 1 mps 755 mmHg 75%
    02:00 +30°C° 0 mm 1 mps 755 mmHg 76%
    03:00 +29°C° 0 mm 1 mps 755 mmHg 76%
    04:00 +29°C° 0 mm 1 mps 755 mmHg 77%
    05:00 +29°C° 0 mm 1 mps 756 mmHg 78%
    06:00 +29°C° 0 mm 1 mps 756 mmHg 79%
    07:00 +31°C° 0.1 mm 1 mps 757 mmHg 70%
    08:00 +33°C° 0.1 mm 1 mps 757 mmHg 61%
    09:00 +35°C° 0.1 mm 1 mps 757 mmHg 52%
    10:00 +37°C° 0 mm 1 mps 757 mmHg 47%
    11:00 +39°C° 0 mm 2 mps 756 mmHg 43%
    12:00 +41°C° 0 mm 2 mps 756 mmHg 38%
    13:00 +40°C° 0 mm 3 mps 755 mmHg 40%
    14:00 +39°C° 0 mm 3 mps 754 mmHg 42%
    15:00 +38°C° 0 mm 3 mps 753 mmHg 44%
    16:00 +38°C° 0 mm 3 mps 754 mmHg 46%
    17:00 +37°C° 0 mm 3 mps 754 mmHg 49%
    18:00 +36°C° 0 mm 3 mps 754 mmHg 51%
    19:00 +35°C° 0 mm 3 mps 754 mmHg 56%
    20:00 +34°C° 0 mm 3 mps 755 mmHg 61%
    21:00 +33°C° 0 mm 3 mps 755 mmHg 66%
    22:00 +33°C° 0.2 mm 3 mps 755 mmHg 68%
    23:00 +31°C° 0.2 mm 3 mps 755 mmHg 70%
    Show more